DateTimeUTC,F1_A11,F1_S11,BsB_S11,BsG_S11,BsR_S11,BbsB_S11,BbsG_S11,BbsR_S11,BaB_A11,BaG_A11,BaR_A11,Tu_S11,T_S11,Uu_S11,U_S11,P_S11,T1_A11
2021-09-19T01:00:00Z,00000200,21000000,,,,,,,0000.23,-000.08,0000.16,18.0,25.6,,00.0,0656.1,31.0
2021-09-19T01:01:00Z,00000200,21000000,,,,,,,0000.32,0000.34,0000.08,18.0,25.6,,00.0,0656.1,31.0
2021-09-19T01:02:00Z,00000200,21000000,,,,,,,-000.12,0000.06,0000.32,18.0,25.5,,00.0,0656.1,31.0
2021-09-19T01:03:00Z,00000200,61000000,,,,,,,-000.15,0000.08,-000.02,18.0,25.6,,00.0,0656.1,31.0
2021-09-19T01:04:00Z,00000200,41000000,0002.41,0002.02,0001.19,0000.59,0000.49,0000.25,-000.12,-000.19,-000.07,18.5,25.5,,00.0,0657.1,31.1
2021-09-19T01:05:00Z,00000200,01000000,0002.56,0002.07,0000.97,0000.19,0000.04,0000.17,0000.18,0000.13,-000.28,18.6,25.5,,00.0,0657.1,31.1
2021-09-19T01:06:00Z,00000200,01000000,0002.14,0002.22,0001.25,0000.74,0000.27,0000.39,-000.39,-000.58,-000.08,18.7,25.5,,00.0,0657.1,31.1
2021-09-19T01:07:00Z,00000200,01000000,0002.71,0001.90,0000.88,0000.48,0000.61,0000.24,0000.34,0000.77,0000.37,18.8,25.5,,00.0,0657.1,31.1
2021-09-19T01:08:00Z,00000200,01000000,0002.70,0001.92,0001.08,0000.56,0000.44,0000.08,0000.94,0000.56,0000.53,18.9,25.6,,00.0,0657.1,31.1
2021-09-19T01:09:00Z,00000200,01000000,0002.48,0001.85,0000.97,0000.84,0000.61,0000.16,-000.09,-000.11,-000.09,18.9,25.6,,00.0,0657.1,31.1
2021-09-19T01:10:00Z,00000200,01000000,0002.55,0001.80,0001.02,0000.62,0000.23,0000.01,0000.22,0000.51,0000.23,18.9,25.6,,00.0,0657.1,31.1
2021-09-19T01:11:00Z,00000200,01000000,0001.77,0001.89,0001.21,0000.13,0000.53,0000.20,0000.83,0000.13,0000.43,18.8,25.5,,00.0,0657.1,31.1
2021-09-19T01:12:00Z,00000200,01000000,0002.79,0001.55,0001.03,0000.38,0000.37,0000.14,0000.87,0001.33,0000.72,18.7,25.5,,00.0,0657.1,31.0
2021-09-19T01:13:00Z,00000200,01000000,0002.68,0002.25,0001.14,0000.57,0000.61,0000.06,0000.87,0000.52,0000.29,18.6,25.4,,00.0,0657.1,31.0
2021-09-19T01:14:00Z,00000200,01000000,0003.00,0001.83,0001.37,-000.08,0000.63,0000.06,0000.41,0000.34,0000.53,18.5,25.4,,00.0,0657.1,31.0
2021-09-19T01:15:00Z,00000200,01000000,0001.73,0001.85,0001.22,0000.43,0000.39,-000.01,-000.09,-000.32,-000.42,18.4,25.4,,00.0,0657.1,31.0
2021-09-19T01:16:00Z,00000200,01000000,0002.44,0002.03,0001.49,0000.43,0000.51,0000.13,-000.53,-000.45,-000.04,18.5,25.3,,00.0,0657.1,31.0
2021-09-19T01:17:00Z,00000200,01000000,0002.61,0001.63,0001.48,0000.50,0000.22,0000.05,0000.17,0000.68,-000.16,18.5,25.4,,00.0,0657.1,31.0
2021-09-19T01:18:00Z,00000200,01000000,0002.74,0002.31,0001.26,0000.99,0000.56,0000.26,0001.00,0000.60,0000.92,18.6,25.4,,00.0,0657.1,31.1
2021-09-19T01:19:00Z,00000200,01000000,0001.91,0002.08,0001.23,0000.51,0000.39,-000.05,0000.65,0000.72,0000.66,18.7,25.4,,00.0,0657.1,31.1
2021-09-19T01:20:00Z,00000200,01000000,0002.60,0002.19,0001.08,0000.21,0000.14,0000.26,0001.22,0000.91,0000.92,18.7,25.5,,00.0,0657.1,31.1
2021-09-19T01:21:00Z,00000200,01000000,0001.98,0002.07,0001.17,0000.17,0000.19,0000.17,0001.01,0001.18,0000.80,18.8,25.5,,00.0,0657.1,31.1
2021-09-19T01:22:00Z,00000200,01000000,0003.23,0002.21,0001.11,0001.11,0000.31,0000.47,0001.17,0001.32,0000.73,18.9,25.6,,00.0,0657.1,31.1
2021-09-19T01:23:00Z,00000200,01000000,0002.79,0002.14,0001.17,0000.34,-000.01,0000.27,0001.39,0000.95,0001.01,19.0,25.6,,00.0,0657.1,31.1
2021-09-19T01:24:00Z,00000200,01000000,0002.75,0001.91,0001.19,0000.50,0000.30,-000.01,0001.16,0000.87,0000.59,19.0,25.6,,00.0,0657.1,31.1
2021-09-19T01:25:00Z,00000200,01000000,0001.85,0002.18,0001.39,-000.09,0000.09,-000.10,0000.49,0000.71,0000.75,18.9,25.6,,00.0,0657.1,31.1
2021-09-19T01:26:00Z,00000200,01000000,0002.65,0002.05,0000.86,0000.02,0000.05,-000.17,-000.17,-000.21,-000.60,18.9,25.6,,00.0,0657.1,31.1
2021-09-19T01:27:00Z,00000200,01000000,0002.59,0001.73,0000.84,0000.99,0000.49,0000.24,-000.36,-000.02,0000.11,18.8,25.5,,00.0,0657.1,31.0
2021-09-19T01:28:00Z,00000200,01000000,0003.40,0002.22,0001.02,-000.31,0000.30,0000.55,0000.79,0000.22,0000.09,18.7,25.5,,00.0,0657.0,31.0
2021-09-19T01:29:00Z,00000200,01000000,0002.12,0002.05,0001.37,0000.63,0000.61,0000.25,0001.17,0001.28,0000.90,18.6,25.4,,00.0,0657.0,31.0
2021-09-19T01:30:00Z,00000200,01000000,0002.45,0002.23,0001.22,0000.42,0000.36,0000.28,0000.79,0000.58,0000.50,18.5,25.4,,00.0,0657.0,31.0
2021-09-19T01:31:00Z,00000200,01000000,0002.85,0001.92,0001.12,0000.63,0000.46,0000.33,0001.67,0001.15,0001.30,18.5,25.4,,00.0,0657.0,31.0
2021-09-19T01:32:00Z,00000200,01000000,0003.11,0001.70,0000.98,0000.62,0000.38,-000.08,0001.94,0002.19,0001.40,18.6,25.4,,00.0,0657.0,31.0
2021-09-19T01:33:00Z,00000200,01000000,0002.61,0001.66,0000.84,0000.24,0000.20,0000.16,0001.33,0000.79,0000.58,18.7,25.4,,00.0,0657.0,31.1
2021-09-19T01:34:00Z,00000200,01000000,0002.10,0001.80,0000.97,0000.39,0000.49,0000.01,0000.21,0000.84,0000.50,18.7,25.5,,00.0,0657.0,31.1
2021-09-19T01:35:00Z,00000200,01000000,0002.06,0001.75,0001.21,0000.64,0000.29,0000.42,0001.32,0001.03,0000.68,18.8,25.5,,00.0,0657.0,31.1
2021-09-19T01:36:00Z,00000200,01000000,0002.27,0001.90,0001.13,0000.72,0000.01,0000.21,0002.17,0001.59,0001.73,18.9,25.6,,00.0,0657.0,31.1
2021-09-19T01:37:00Z,00000200,01000000,0002.82,0001.96,0000.83,0000.71,0000.57,-000.36,0002.49,0002.20,0001.47,19.0,25.6,,00.0,0657.0,31.1
2021-09-19T01:38:00Z,00000200,01000000,0002.65,0002.09,0000.80,0000.62,0000.23,0000.49,0000.93,0000.88,0000.74,19.0,25.7,,00.0,0657.1,31.1
2021-09-19T01:39:00Z,00000200,01000000,0002.68,0002.03,0000.82,0000.72,0000.24,-000.09,0000.55,0000.71,0000.53,19.0,25.6,,00.0,0657.1,31.1
2021-09-19T01:40:00Z,00000200,01000000,0002.54,0001.88,0001.25,0000.41,0000.39,-000.08,0000.95,0001.03,0000.61,19.0,25.6,,00.0,0657.1,31.1
2021-09-19T01:41:00Z,00000200,01000000,0002.44,0002.18,0001.27,0000.73,0000.48,0000.48,0001.06,0000.57,0000.37,18.9,25.6,,00.0,0657.1,31.0
2021-09-19T01:42:00Z,00000200,01000000,0002.76,0002.00,0001.18,0000.15,0000.62,0000.14,0000.79,0000.58,0000.35,18.8,25.5,,00.0,0657.1,31.0
2021-09-19T01:43:00Z,00000200,01000000,0002.57,0001.93,0001.27,0000.32,0000.11,0000.40,-000.05,0000.34,0000.37,18.8,25.5,,00.0,0657.1,31.0
2021-09-19T01:44:00Z,00000200,01000000,0002.61,0002.22,0001.29,0000.34,0000.19,0000.06,0001.24,0000.70,0000.62,18.7,25.4,,00.0,0657.0,31.0
2021-09-19T01:45:00Z,00000200,01000000,0002.99,0001.99,0001.07,0000.77,0000.59,0000.27,0000.29,0000.27,0000.31,18.6,25.4,,00.0,0657.1,31.0
2021-09-19T01:46:00Z,00000200,01000000,0002.85,0002.18,0001.25,0000.42,0000.16,0000.50,0000.12,0000.36,0000.17,18.6,25.4,,00.0,0657.0,31.0
2021-09-19T01:47:00Z,00000200,01000000,0002.35,0001.92,0001.10,0000.21,0000.56,0000.16,0000.17,0000.17,0000.15,18.7,25.4,,00.0,0657.0,31.0
2021-09-19T01:48:00Z,00000200,01000000,0002.50,0001.92,0001.10,0000.45,0000.43,0000.01,0000.54,0000.85,0000.30,18.8,25.4,,00.0,0657.1,31.0
2021-09-19T01:49:00Z,00000200,01000000,0002.79,0001.72,0001.02,0000.47,0000.38,0000.16,0000.59,0000.23,0000.41,18.8,25.5,,00.0,0657.1,31.1
2021-09-19T01:50:00Z,00000200,01000000,0003.03,0002.05,0001.41,0000.39,0000.33,0000.03,0000.57,0000.24,0000.53,18.9,25.5,,00.0,0657.1,31.1
2021-09-19T01:51:00Z,00000200,01000000,0002.71,0001.93,0000.89,0000.48,0000.52,-000.17,0000.54,0000.43,0000.44,19.0,25.6,,00.0,0657.1,31.1
2021-09-19T01:52:00Z,00000200,01000000,0002.61,0001.92,0000.80,0000.57,0000.64,-000.12,0000.17,0000.63,0000.14,19.1,25.6,,00.0,0657.1,31.1
2021-09-19T01:53:00Z,00000200,01000000,0002.67,0002.03,0001.29,0000.22,0000.33,0000.25,-000.20,-000.13,-000.29,19.0,25.6,,00.0,0657.1,31.1
2021-09-19T01:54:00Z,00000200,01000000,0003.30,0002.05,0000.72,0000.43,0000.33,-000.01,0000.23,0000.04,0000.11,19.0,25.6,,00.0,0657.1,31.1
2021-09-19T01:55:00Z,00000200,01000000,0002.67,0001.88,0001.30,0000.68,0000.53,0000.37,-000.61,-000.48,-000.45,18.9,25.5,,00.0,0657.1,31.0
2021-09-19T01:56:00Z,00000200,01000000,0001.86,0002.18,0001.03,0000.60,0000.32,0000.54,-000.96,-001.14,-000.69,18.8,25.5,,00.0,0657.1,31.0
2021-09-19T01:57:00Z,00000200,41000000,,,,,,,-000.05,-000.10,-000.09,18.8,25.5,,00.0,0657.2,31.0
2021-09-19T01:58:00Z,00000200,61000000,,,,,,,-001.30,-000.83,-000.87,18.3,25.6,,00.0,0656.1,31.0
2021-09-19T01:59:00Z,00000200,21000000,,,,,,,-000.44,-000.92,-000.33,18.2,25.6,,00.0,0656.1,31.0
